Location: Seattle
(47.6060°N, 122.3310°W)
Time: 18:42:05
(UTC-08:00)

ISS - Visible Passes

Search period start: 05 February 2016 00:00
Search period end: 15 February 2016 00:00
Orbit: 399 x 408 km, 51.6° (Epoch: 05 February)

Date Brightness Start Highest point End Pass type
(mag) Time Alt. Az. Time Alt. Az. Time Alt. Az.
05 Feb -3.1 18:19:24 10° SW 18:22:36 57° SSE 18:24:36 20° ENE visible
05 Feb -0.7 19:56:00 10° W 19:57:15 20° WNW 19:57:15 20° WNW visible
06 Feb -3.0 19:03:19 10° W 19:06:31 56° NNW 19:06:56 51° NNE visible
07 Feb -3.3 18:10:40 10° WSW 18:13:56 79° NNW 18:16:34 15° ENE visible
07 Feb -1.1 19:47:34 10° WNW 19:49:13 24° NW 19:49:13 24° NW visible
08 Feb -2.6 18:54:50 10° W 18:57:57 42° N 18:58:48 34° NNE visible
09 Feb -2.8 18:02:05 10° W 18:05:16 52° NNW 18:08:22 11° ENE visible
09 Feb -1.6 19:39:00 10° WNW 19:41:00 29° NW 19:41:00 29° NW visible
10 Feb -2.4 18:46:17 10° WNW 18:49:22 38° N 18:50:32 27° NE visible
10 Feb 0.1 20:22:55 10° WNW 20:23:10 12° WNW 20:23:10 12° WNW visible
11 Feb -2.5 17:53:30 10° W 17:56:37 41° N 17:59:43 10° ENE visible
11 Feb -2.2 19:30:17 10° WNW 19:32:43 39° NNW 19:32:43 39° NNW visible
12 Feb -2.6 18:37:36 10° WNW 18:40:42 41° N 18:42:15 23° ENE visible
12 Feb -0.3 20:14:05 10° WNW 20:14:53 16° WNW 20:14:53 16° WNW visible
13 Feb -3.3 19:21:25 10° WNW 19:24:27 68° NNW 19:24:27 68° NNW visible
14 Feb -3.0 18:28:44 10° WNW 18:31:56 52° NNE 18:34:04 19° E visible
14 Feb -0.8 20:05:16 10° WNW 20:06:42 22° W 20:06:42 22° W visible
